Year,Month,Day,Hour,Minute,Value (Times are PST for temperature in C)
2015,04,28,00,00,10.60
2015,04,28,00,01,10.60
2015,04,28,00,02,10.60
2015,04,28,00,03,10.60
2015,04,28,00,04,10.60
2015,04,28,00,05,10.60
2015,04,28,00,06,10.60
2015,04,28,00,07,10.70
2015,04,28,00,08,10.70
2015,04,28,00,09,10.70
2015,04,28,00,10,10.70
2015,04,28,00,11,10.70
2015,04,28,00,12,10.70
2015,04,28,00,13,10.70
2015,04,28,00,14,10.80
2015,04,28,00,15,10.80
2015,04,28,00,16,10.80
2015,04,28,00,17,10.80
2015,04,28,00,18,10.80
2015,04,28,00,19,10.80
2015,04,28,00,20,10.80
2015,04,28,00,21,10.90
2015,04,28,00,22,10.90
2015,04,28,00,23,10.90
2015,04,28,00,24,10.90
2015,04,28,00,25,10.90
2015,04,28,00,26,10.90
2015,04,28,00,27,10.90
2015,04,28,00,28,10.90
2015,04,28,00,29,10.80
2015,04,28,00,30,10.90
2015,04,28,00,31,10.90
2015,04,28,00,32,10.90
2015,04,28,00,33,10.80
2015,04,28,00,34,10.80
2015,04,28,00,35,10.80
2015,04,28,00,36,10.80
2015,04,28,00,37,10.80
2015,04,28,00,38,10.80
2015,04,28,00,39,10.80
2015,04,28,00,40,10.80
2015,04,28,00,41,10.80
2015,04,28,00,42,10.80
2015,04,28,00,43,10.80
2015,04,28,00,44,10.80
2015,04,28,00,45,10.80
2015,04,28,00,46,10.80
2015,04,28,00,47,10.80
2015,04,28,00,48,10.80
2015,04,28,00,49,10.80
2015,04,28,00,50,10.80
2015,04,28,00,51,10.80
2015,04,28,00,52,10.70
2015,04,28,00,53,10.70
2015,04,28,00,54,10.70
2015,04,28,00,55,10.70
2015,04,28,00,56,10.60
2015,04,28,00,57,10.60
2015,04,28,00,58,10.60
2015,04,28,00,59,10.60
2015,04,28,01,00,10.60
2015,04,28,01,01,10.70
2015,04,28,01,02,10.70
2015,04,28,01,03,10.80
2015,04,28,01,04,10.80
2015,04,28,01,05,10.80
2015,04,28,01,06,10.80
2015,04,28,01,07,10.80
2015,04,28,01,08,10.80
2015,04,28,01,09,10.80
2015,04,28,01,10,10.80
2015,04,28,01,11,10.80
2015,04,28,01,12,10.80
2015,04,28,01,13,10.80
2015,04,28,01,14,10.80
2015,04,28,01,15,10.80
2015,04,28,01,16,10.80
2015,04,28,01,17,10.80
2015,04,28,01,18,10.80
2015,04,28,01,19,10.80
2015,04,28,01,20,10.80
2015,04,28,01,21,10.80
2015,04,28,01,22,10.80
2015,04,28,01,23,10.80
2015,04,28,01,24,10.90
2015,04,28,01,25,10.90
2015,04,28,01,26,10.90
2015,04,28,01,27,10.90
2015,04,28,01,28,10.80
2015,04,28,01,29,10.80
2015,04,28,01,30,10.80
2015,04,28,01,31,10.80
2015,04,28,01,32,10.80
2015,04,28,01,33,10.80
2015,04,28,01,34,10.80
2015,04,28,01,35,10.80
2015,04,28,01,36,10.90
2015,04,28,01,37,10.90
2015,04,28,01,38,10.90
2015,04,28,01,39,10.90
2015,04,28,01,40,10.90
2015,04,28,01,41,10.80
2015,04,28,01,42,10.80
2015,04,28,01,43,10.80
2015,04,28,01,44,10.80
2015,04,28,01,45,10.80
2015,04,28,01,46,10.70
2015,04,28,01,47,10.70
2015,04,28,01,48,10.70
2015,04,28,01,49,10.70
2015,04,28,01,50,10.80
2015,04,28,01,51,10.80
2015,04,28,01,52,10.80
2015,04,28,01,53,10.80
2015,04,28,01,54,10.80
2015,04,28,01,55,10.70
2015,04,28,01,56,10.70
2015,04,28,01,57,10.70
2015,04,28,01,58,10.70
2015,04,28,01,59,10.70
2015,04,28,02,00,10.70
2015,04,28,02,01,10.70
2015,04,28,02,02,10.70
2015,04,28,02,03,10.70
2015,04,28,02,04,10.70
2015,04,28,02,05,10.70
2015,04,28,02,06,10.70
2015,04,28,02,07,10.70
2015,04,28,02,08,10.70
2015,04,28,02,09,10.60
2015,04,28,02,10,10.60
2015,04,28,02,11,10.60
2015,04,28,02,12,10.60
2015,04,28,02,13,10.50
2015,04,28,02,14,10.50
2015,04,28,02,15,10.50
2015,04,28,02,16,10.50
2015,04,28,02,17,10.40
2015,04,28,02,18,10.40
2015,04,28,02,19,10.40
2015,04,28,02,20,10.40
2015,04,28,02,21,10.40
2015,04,28,02,22,10.30
2015,04,28,02,23,10.30
2015,04,28,02,24,10.40
2015,04,28,02,25,10.40
2015,04,28,02,26,10.40
2015,04,28,02,27,10.40
2015,04,28,02,28,10.40
2015,04,28,02,29,10.40
2015,04,28,02,30,10.50
2015,04,28,02,31,10.50
2015,04,28,02,32,10.50
2015,04,28,02,33,10.50
2015,04,28,02,34,10.60
2015,04,28,02,35,10.60
2015,04,28,02,36,10.60
2015,04,28,02,37,10.60
2015,04,28,02,38,10.60
2015,04,28,02,39,10.70
2015,04,28,02,40,10.70
2015,04,28,02,41,10.70
2015,04,28,02,42,10.70
2015,04,28,02,43,10.70
2015,04,28,02,44,10.70
2015,04,28,02,45,10.70
2015,04,28,02,46,10.70
2015,04,28,02,47,10.70
2015,04,28,02,48,10.70
2015,04,28,02,49,10.70
2015,04,28,02,50,10.70
2015,04,28,02,51,10.80
2015,04,28,02,52,10.80
2015,04,28,02,53,10.80
2015,04,28,02,54,10.80
2015,04,28,02,55,10.80
2015,04,28,02,56,10.90
2015,04,28,02,57,10.90
2015,04,28,02,58,10.90
2015,04,28,02,59,10.90
2015,04,28,03,00,10.90
2015,04,28,03,01,11.00
2015,04,28,03,02,11.10
2015,04,28,03,03,11.20
2015,04,28,03,04,11.40
2015,04,28,03,05,11.40
2015,04,28,03,06,11.60
2015,04,28,03,07,11.60
2015,04,28,03,08,11.70
2015,04,28,03,09,11.60
2015,04,28,03,10,11.60
2015,04,28,03,11,11.60
2015,04,28,03,12,11.60
2015,04,28,03,13,11.60
2015,04,28,03,14,11.50
2015,04,28,03,15,11.50
2015,04,28,03,16,11.60
2015,04,28,03,17,11.60
2015,04,28,03,18,11.70
2015,04,28,03,19,11.60
2015,04,28,03,20,11.70
2015,04,28,03,21,11.70
2015,04,28,03,22,11.80
2015,04,28,03,23,11.80
2015,04,28,03,24,11.90
2015,04,28,03,25,11.90
2015,04,28,03,26,12.00
2015,04,28,03,27,12.10
2015,04,28,03,28,12.10
2015,04,28,03,29,12.00
2015,04,28,03,30,12.00
2015,04,28,03,31,12.00
2015,04,28,03,32,12.00
2015,04,28,03,33,12.00
2015,04,28,03,34,12.00
2015,04,28,03,35,12.10
2015,04,28,03,36,12.20
2015,04,28,03,37,12.20
2015,04,28,03,38,12.20
2015,04,28,03,39,12.20
2015,04,28,03,40,12.20
2015,04,28,03,41,12.10
2015,04,28,03,42,12.00
2015,04,28,03,43,12.00
2015,04,28,03,44,12.00
2015,04,28,03,45,12.10
2015,04,28,03,46,12.20
2015,04,28,03,47,12.30
2015,04,28,03,48,12.30
2015,04,28,03,49,12.30
2015,04,28,03,50,12.20
2015,04,28,03,51,12.20
2015,04,28,03,52,12.20
2015,04,28,03,53,12.20
2015,04,28,03,54,12.10
2015,04,28,03,55,12.10
2015,04,28,03,56,12.10
2015,04,28,03,57,12.20
2015,04,28,03,58,12.20
2015,04,28,03,59,12.30
2015,04,28,04,00,12.30
2015,04,28,04,01,12.30
2015,04,28,04,02,12.40
2015,04,28,04,03,12.50
2015,04,28,04,04,12.60
2015,04,28,04,05,12.70
2015,04,28,04,06,12.80
2015,04,28,04,07,12.90
2015,04,28,04,08,13.00
2015,04,28,04,09,13.10
2015,04,28,04,10,13.20
2015,04,28,04,11,13.20
2015,04,28,04,12,13.30
2015,04,28,04,13,13.40
2015,04,28,04,14,13.50
2015,04,28,04,15,13.50
2015,04,28,04,16,13.50
2015,04,28,04,17,13.40
2015,04,28,04,18,13.30
2015,04,28,04,19,13.30
2015,04,28,04,20,13.30
2015,04,28,04,21,13.40
2015,04,28,04,22,13.60
2015,04,28,04,23,13.80
2015,04,28,04,24,13.80
2015,04,28,04,25,13.80
2015,04,28,04,26,13.80
2015,04,28,04,27,13.80
2015,04,28,04,28,13.70
2015,04,28,04,29,13.70
2015,04,28,04,30,13.70
2015,04,28,04,31,13.70
2015,04,28,04,32,13.80
2015,04,28,04,33,13.80
2015,04,28,04,34,13.80
2015,04,28,04,35,13.80
2015,04,28,04,36,13.80
2015,04,28,04,37,13.80
2015,04,28,04,38,13.80
2015,04,28,04,39,13.80
2015,04,28,04,40,13.90
2015,04,28,04,41,13.90
2015,04,28,04,42,13.90
2015,04,28,04,43,13.90
2015,04,28,04,44,14.00
2015,04,28,04,45,14.10
2015,04,28,04,46,14.10
2015,04,28,04,47,14.20
2015,04,28,04,48,14.20
2015,04,28,04,49,14.20
2015,04,28,04,50,14.20
2015,04,28,04,51,14.20
2015,04,28,04,52,14.30
2015,04,28,04,53,14.30
2015,04,28,04,54,14.30
2015,04,28,04,55,14.30
2015,04,28,04,56,14.30
2015,04,28,04,57,14.30
2015,04,28,04,58,14.30
2015,04,28,04,59,14.20
2015,04,28,05,00,14.20
2015,04,28,05,01,14.20
2015,04,28,05,02,14.20
2015,04,28,05,03,14.10
2015,04,28,05,04,14.10
2015,04,28,05,05,14.10
2015,04,28,05,06,14.10
2015,04,28,05,07,14.00
2015,04,28,05,08,13.90
2015,04,28,05,09,13.90
2015,04,28,05,10,13.80
2015,04,28,05,11,13.80
2015,04,28,05,12,13.80
2015,04,28,05,13,13.80
2015,04,28,05,14,13.80
2015,04,28,05,15,13.70
2015,04,28,05,16,13.70
2015,04,28,05,17,13.80
2015,04,28,05,18,13.80
2015,04,28,05,19,13.90
2015,04,28,05,20,13.90
2015,04,28,05,21,14.00
2015,04,28,05,22,14.00
2015,04,28,05,23,14.00
2015,04,28,05,24,14.00
2015,04,28,05,25,14.00
2015,04,28,05,26,14.10
2015,04,28,05,27,14.10
2015,04,28,05,28,14.10
2015,04,28,05,29,14.10
2015,04,28,05,30,14.10
2015,04,28,05,31,14.10
2015,04,28,05,32,14.10
2015,04,28,05,33,14.10
2015,04,28,05,34,14.00
2015,04,28,05,35,14.00
2015,04,28,05,36,14.00
2015,04,28,05,37,13.90
2015,04,28,05,38,13.90
2015,04,28,05,39,13.80
2015,04,28,05,40,13.80
2015,04,28,05,41,13.70
2015,04,28,05,42,13.60
2015,04,28,05,43,13.50
2015,04,28,05,44,13.40
2015,04,28,05,45,13.30
2015,04,28,05,46,13.30
2015,04,28,05,47,13.30
2015,04,28,05,48,13.30
2015,04,28,05,49,13.30
2015,04,28,05,50,13.30
2015,04,28,05,51,13.30
2015,04,28,05,52,13.20
2015,04,28,05,53,13.20
2015,04,28,05,54,13.20
2015,04,28,05,55,13.20
2015,04,28,05,56,13.20
2015,04,28,05,57,13.20
2015,04,28,05,58,13.20
2015,04,28,05,59,13.20
2015,04,28,06,00,13.20
2015,04,28,06,01,13.30
2015,04,28,06,02,13.30
2015,04,28,06,03,13.30
2015,04,28,06,04,13.30
2015,04,28,06,05,13.30
2015,04,28,06,06,13.30
2015,04,28,06,07,13.30
2015,04,28,06,08,13.30
2015,04,28,06,09,13.20
2015,04,28,06,10,13.20
2015,04,28,06,11,13.20
2015,04,28,06,12,13.20
2015,04,28,06,13,13.20
2015,04,28,06,14,13.10
2015,04,28,06,15,13.10
2015,04,28,06,16,13.10
2015,04,28,06,17,13.10
2015,04,28,06,18,13.00
2015,04,28,06,19,13.00
2015,04,28,06,20,13.00
2015,04,28,06,21,12.90
2015,04,28,06,22,12.90
2015,04,28,06,23,12.90
2015,04,28,06,24,12.80
2015,04,28,06,25,12.80
2015,04,28,06,26,12.80
2015,04,28,06,27,12.70
2015,04,28,06,28,12.70
2015,04,28,06,29,12.70
2015,04,28,06,30,12.60
2015,04,28,06,31,12.50
2015,04,28,06,32,12.50
2015,04,28,06,33,12.40
2015,04,28,06,34,12.40
2015,04,28,06,35,12.50
2015,04,28,06,36,12.70
2015,04,28,06,37,12.80
2015,04,28,06,38,12.80
2015,04,28,06,39,12.80
2015,04,28,06,40,12.90
2015,04,28,06,41,12.90
2015,04,28,06,42,12.90
2015,04,28,06,43,12.90
2015,04,28,06,44,12.90
2015,04,28,06,45,13.00
2015,04,28,06,46,13.10
2015,04,28,06,47,13.20
2015,04,28,06,48,13.20
2015,04,28,06,49,13.30
2015,04,28,06,50,13.30
2015,04,28,06,51,13.40
2015,04,28,06,52,13.40
2015,04,28,06,53,13.40
2015,04,28,06,54,13.50
2015,04,28,06,55,13.60
2015,04,28,06,56,13.60
2015,04,28,06,57,13.60
2015,04,28,06,58,13.60
2015,04,28,06,59,13.60
2015,04,28,07,00,13.60
2015,04,28,07,01,13.60
2015,04,28,07,02,13.60
2015,04,28,07,03,13.60
2015,04,28,07,04,13.60
2015,04,28,07,05,13.60
2015,04,28,07,06,13.60
2015,04,28,07,07,13.60
2015,04,28,07,08,13.60
2015,04,28,07,09,13.60
2015,04,28,07,10,13.60
2015,04,28,07,11,13.60
2015,04,28,07,12,13.70
2015,04,28,07,13,13.70
2015,04,28,07,14,13.70
2015,04,28,07,15,13.70
2015,04,28,07,16,13.70
2015,04,28,07,17,13.70
2015,04,28,07,18,13.70
2015,04,28,07,19,13.70
2015,04,28,07,20,13.70
2015,04,28,07,21,13.70
2015,04,28,07,22,13.70
2015,04,28,07,23,13.70
2015,04,28,07,24,13.70
2015,04,28,07,25,13.60
2015,04,28,07,26,13.60
2015,04,28,07,27,13.60
2015,04,28,07,28,13.60
2015,04,28,07,29,13.60
2015,04,28,07,30,13.60
2015,04,28,07,31,13.70
2015,04,28,07,32,13.80
2015,04,28,07,33,13.90
2015,04,28,07,34,13.90
2015,04,28,07,35,13.90
2015,04,28,07,36,13.90
2015,04,28,07,37,13.90
2015,04,28,07,38,14.00
2015,04,28,07,39,14.00
2015,04,28,07,40,14.10
2015,04,28,07,41,14.10
2015,04,28,07,42,14.10
2015,04,28,07,43,14.10
2015,04,28,07,44,14.00
2015,04,28,07,45,13.90
2015,04,28,07,46,13.90
2015,04,28,07,47,13.90
2015,04,28,07,48,13.90
2015,04,28,07,49,13.90
2015,04,28,07,50,14.00
2015,04,28,07,51,14.00
2015,04,28,07,52,14.00
2015,04,28,07,53,14.00
2015,04,28,07,54,14.00
2015,04,28,07,55,14.10
2015,04,28,07,56,14.10
2015,04,28,07,57,14.10
2015,04,28,07,58,14.10
2015,04,28,07,59,14.10
2015,04,28,08,00,14.10
2015,04,28,08,01,14.10
2015,04,28,08,02,14.00
2015,04,28,08,03,14.00
2015,04,28,08,04,14.00
2015,04,28,08,05,14.00
2015,04,28,08,06,14.00
2015,04,28,08,07,14.00
2015,04,28,08,08,14.00
2015,04,28,08,09,13.90
2015,04,28,08,10,13.90
2015,04,28,08,11,13.90
2015,04,28,08,12,13.90
2015,04,28,08,13,13.90
2015,04,28,08,14,13.80
2015,04,28,08,15,13.80
2015,04,28,08,16,13.70
2015,04,28,08,17,13.70
2015,04,28,08,18,13.60
2015,04,28,08,19,13.60
2015,04,28,08,20,13.50
2015,04,28,08,21,13.40
2015,04,28,08,22,13.40
2015,04,28,08,23,13.30
2015,04,28,08,24,13.30
2015,04,28,08,25,13.30
2015,04,28,08,26,13.30
2015,04,28,08,27,13.20
2015,04,28,08,28,13.10
2015,04,28,08,29,13.10
2015,04,28,08,30,13.10
2015,04,28,08,31,13.00
2015,04,28,08,32,13.00
2015,04,28,08,33,12.90
2015,04,28,08,34,12.90
2015,04,28,08,35,12.90
2015,04,28,08,36,12.80
2015,04,28,08,37,12.80
2015,04,28,08,38,12.80
2015,04,28,08,39,12.80
2015,04,28,08,40,12.70
2015,04,28,08,41,12.60
2015,04,28,08,42,12.50
2015,04,28,08,43,12.40
2015,04,28,08,44,12.40
2015,04,28,08,45,12.30
2015,04,28,08,46,12.30
2015,04,28,08,47,12.30
2015,04,28,08,48,12.20
2015,04,28,08,49,12.20
2015,04,28,08,50,12.20
2015,04,28,08,51,12.30
2015,04,28,08,52,12.20
2015,04,28,08,53,12.20
2015,04,28,08,54,12.20
2015,04,28,08,55,12.20
2015,04,28,08,56,12.20
2015,04,28,08,57,12.20
2015,04,28,08,58,12.20
2015,04,28,08,59,12.20
2015,04,28,09,00,12.20
2015,04,28,09,01,12.20
2015,04,28,09,02,12.20
2015,04,28,09,03,12.20
2015,04,28,09,04,12.20
2015,04,28,09,05,12.20
2015,04,28,09,06,12.20
2015,04,28,09,07,12.20
2015,04,28,09,08,12.20
2015,04,28,09,09,12.20
2015,04,28,09,10,12.10
2015,04,28,09,11,12.10
2015,04,28,09,12,12.10
2015,04,28,09,13,12.10
2015,04,28,09,14,12.10
2015,04,28,09,15,12.10
2015,04,28,09,16,12.10
2015,04,28,09,17,12.10
2015,04,28,09,18,12.10
2015,04,28,09,19,12.10
2015,04,28,09,20,12.10
2015,04,28,09,21,12.10
2015,04,28,09,22,12.10
2015,04,28,09,23,12.10
2015,04,28,09,24,12.10
2015,04,28,09,25,12.20
2015,04,28,09,26,12.20
2015,04,28,09,27,12.20
2015,04,28,09,28,12.20
2015,04,28,09,29,12.20
2015,04,28,09,30,12.20
2015,04,28,09,31,12.20
2015,04,28,09,32,12.20
2015,04,28,09,33,12.30
2015,04,28,09,34,12.30
2015,04,28,09,35,12.30
2015,04,28,09,36,12.30
2015,04,28,09,37,12.30
2015,04,28,09,38,12.30
2015,04,28,09,39,12.30
2015,04,28,09,40,12.30
2015,04,28,09,41,12.40
2015,04,28,09,42,12.30
2015,04,28,09,43,12.30
2015,04,28,09,44,12.30
2015,04,28,09,45,12.30
2015,04,28,09,46,12.30
2015,04,28,09,47,12.30
2015,04,28,09,48,12.30
2015,04,28,09,49,12.30
2015,04,28,09,50,12.20
2015,04,28,09,51,12.20
2015,04,28,09,52,12.20
2015,04,28,09,53,12.20
2015,04,28,09,54,12.20
2015,04,28,09,55,12.20
2015,04,28,09,56,12.20
2015,04,28,09,57,12.20
2015,04,28,09,58,12.20
2015,04,28,09,59,12.10
2015,04,28,10,00,12.20
2015,04,28,10,01,12.10
2015,04,28,10,02,12.10
2015,04,28,10,03,12.10
2015,04,28,10,04,12.10
2015,04,28,10,05,12.10
2015,04,28,10,06,12.10
2015,04,28,10,07,12.00
2015,04,28,10,08,12.00
2015,04,28,10,09,12.00
2015,04,28,10,10,12.00
2015,04,28,10,11,12.00
2015,04,28,10,12,11.90
2015,04,28,10,13,11.90
2015,04,28,10,14,11.90
2015,04,28,10,15,11.90
2015,04,28,10,16,11.90
2015,04,28,10,17,11.90
2015,04,28,10,18,11.90
2015,04,28,10,19,11.80
2015,04,28,10,20,11.80
2015,04,28,10,21,11.80
2015,04,28,10,22,11.80
2015,04,28,10,23,11.80
2015,04,28,10,24,11.80
2015,04,28,10,25,11.70
2015,04,28,10,26,11.70
2015,04,28,10,27,11.70
2015,04,28,10,28,11.70
2015,04,28,10,29,11.70
2015,04,28,10,30,11.70
2015,04,28,10,31,11.70
2015,04,28,10,32,11.70
2015,04,28,10,33,11.70
2015,04,28,10,34,11.70
2015,04,28,10,35,11.70
2015,04,28,10,36,11.60
2015,04,28,10,37,11.60
2015,04,28,10,38,11.60
2015,04,28,10,39,11.60
2015,04,28,10,40,11.50
2015,04,28,10,41,11.50
2015,04,28,10,42,11.50
2015,04,28,10,43,11.40
2015,04,28,10,44,11.40
2015,04,28,10,45,11.40
2015,04,28,10,46,11.40
2015,04,28,10,47,11.40
2015,04,28,10,48,11.40
2015,04,28,10,49,11.40
2015,04,28,10,50,11.40
2015,04,28,10,51,11.40
2015,04,28,10,52,11.40
2015,04,28,10,53,11.40
2015,04,28,10,54,11.40
2015,04,28,10,55,11.40
2015,04,28,10,56,11.40
2015,04,28,10,57,11.30
2015,04,28,10,58,11.20
2015,04,28,10,59,11.20
2015,04,28,11,00,11.20
2015,04,28,11,01,11.10
2015,04,28,11,02,11.00
2015,04,28,11,03,10.90
2015,04,28,11,04,10.80
2015,04,28,11,05,10.80
2015,04,28,11,06,10.80
2015,04,28,11,07,10.70
2015,04,28,11,08,10.70
2015,04,28,11,09,10.70
2015,04,28,11,10,10.60
2015,04,28,11,11,10.60
2015,04,28,11,12,10.60
2015,04,28,11,13,10.50
2015,04,28,11,14,10.50
2015,04,28,11,15,10.40
2015,04,28,11,16,10.30
2015,04,28,11,17,10.30
2015,04,28,11,18,10.20
2015,04,28,11,19,10.20
2015,04,28,11,20,10.30
2015,04,28,11,21,10.30
2015,04,28,11,22,10.30
2015,04,28,11,23,10.30
2015,04,28,11,24,10.30
2015,04,28,11,25,10.30
2015,04,28,11,26,10.20
2015,04,28,11,27,10.10
2015,04,28,11,28,10.00
2015,04,28,11,29,9.90
2015,04,28,11,30,9.80
2015,04,28,11,31,9.80
2015,04,28,11,32,9.80
2015,04,28,11,33,9.70
2015,04,28,11,34,9.70
2015,04,28,11,35,9.70
2015,04,28,11,36,9.70
2015,04,28,11,37,9.60
2015,04,28,11,38,9.60
2015,04,28,11,39,9.60
2015,04,28,11,40,9.60
2015,04,28,11,41,9.60
2015,04,28,11,42,9.60
2015,04,28,11,43,9.60
2015,04,28,11,44,9.60
2015,04,28,11,45,9.60
2015,04,28,11,46,9.60
2015,04,28,11,47,9.60
2015,04,28,11,48,9.60
2015,04,28,11,49,9.50
2015,04,28,11,50,9.40
2015,04,28,11,51,9.40
2015,04,28,11,52,9.40
2015,04,28,11,53,9.40
2015,04,28,11,54,9.40
2015,04,28,11,55,9.50
2015,04,28,11,56,9.60
2015,04,28,11,57,9.60
2015,04,28,11,58,9.60
2015,04,28,11,59,9.60
2015,04,28,12,00,9.60
2015,04,28,12,01,9.60
2015,04,28,12,02,9.60
2015,04,28,12,03,9.70
2015,04,28,12,04,9.70
2015,04,28,12,05,9.80
2015,04,28,12,06,9.80
2015,04,28,12,07,9.80
2015,04,28,12,08,9.80
2015,04,28,12,09,9.80
2015,04,28,12,10,9.80
2015,04,28,12,11,9.70
2015,04,28,12,12,9.70
2015,04,28,12,13,9.80
2015,04,28,12,14,9.80
2015,04,28,12,15,9.80
2015,04,28,12,16,9.80
2015,04,28,12,17,9.90
2015,04,28,12,18,9.90
2015,04,28,12,19,9.90
2015,04,28,12,20,9.90
2015,04,28,12,21,9.90
2015,04,28,12,22,9.90
2015,04,28,12,23,9.90
2015,04,28,12,24,9.90
2015,04,28,12,25,9.90
2015,04,28,12,26,9.90
2015,04,28,12,27,9.90
2015,04,28,12,28,9.90
2015,04,28,12,29,9.90
2015,04,28,12,30,10.00
2015,04,28,12,31,10.00
2015,04,28,12,32,10.10
2015,04,28,12,33,10.10
2015,04,28,12,34,10.10
2015,04,28,12,35,10.10
2015,04,28,12,36,10.20
2015,04,28,12,37,10.30
2015,04,28,12,38,10.30
2015,04,28,12,39,10.40
2015,04,28,12,40,10.50
2015,04,28,12,41,10.60
2015,04,28,12,42,10.50
2015,04,28,12,43,10.50
2015,04,28,12,44,10.50
2015,04,28,12,45,10.60
2015,04,28,12,46,10.70
2015,04,28,12,47,10.70
2015,04,28,12,48,10.70
2015,04,28,12,49,10.70
2015,04,28,12,50,10.70
2015,04,28,12,51,10.70
2015,04,28,12,52,10.80
2015,04,28,12,53,10.80
2015,04,28,12,54,10.90
2015,04,28,12,55,10.90
2015,04,28,12,56,11.00
2015,04,28,12,57,11.10
2015,04,28,12,58,11.10
2015,04,28,12,59,11.20
2015,04,28,13,00,11.20
2015,04,28,13,01,11.30
2015,04,28,13,02,11.40
2015,04,28,13,03,11.50
2015,04,28,13,04,11.60
2015,04,28,13,05,11.60
2015,04,28,13,06,11.70
2015,04,28,13,07,11.70
2015,04,28,13,08,11.60
2015,04,28,13,09,11.50
2015,04,28,13,10,11.40
2015,04,28,13,11,11.30
2015,04,28,13,12,11.20
2015,04,28,13,13,11.10
2015,04,28,13,14,11.10
2015,04,28,13,15,11.10
2015,04,28,13,16,11.10
2015,04,28,13,17,11.10
2015,04,28,13,18,11.20
2015,04,28,13,19,11.20
2015,04,28,13,20,11.20
2015,04,28,13,21,11.20
2015,04,28,13,22,11.30
2015,04,28,13,23,11.20
2015,04,28,13,24,11.20
2015,04,28,13,25,11.10
2015,04,28,13,26,11.10
2015,04,28,13,27,11.10
2015,04,28,13,28,11.00
2015,04,28,13,29,11.00
2015,04,28,13,30,11.00
2015,04,28,13,31,11.00
2015,04,28,13,32,11.00
2015,04,28,13,33,11.00
2015,04,28,13,34,11.00
2015,04,28,13,35,11.00
2015,04,28,13,36,11.00
2015,04,28,13,37,11.00
2015,04,28,13,38,11.00
2015,04,28,13,39,11.00
2015,04,28,13,40,11.10
2015,04,28,13,41,11.10
2015,04,28,13,42,11.10
2015,04,28,13,43,11.10
2015,04,28,13,44,11.00
2015,04,28,13,45,11.10
2015,04,28,13,46,11.10
2015,04,28,13,47,11.20
2015,04,28,13,48,11.20
2015,04,28,13,49,11.20
2015,04,28,13,50,11.10
2015,04,28,13,51,11.10
2015,04,28,13,52,11.00
2015,04,28,13,53,11.00
2015,04,28,13,54,11.00
2015,04,28,13,55,11.10
2015,04,28,13,56,11.10
2015,04,28,13,57,11.10
2015,04,28,13,58,11.20
2015,04,28,13,59,11.20
2015,04,28,14,00,11.30
2015,04,28,14,01,11.30
2015,04,28,14,02,11.30
2015,04,28,14,03,11.30
2015,04,28,14,04,11.30
2015,04,28,14,05,11.40
2015,04,28,14,06,11.40
2015,04,28,14,07,11.40
2015,04,28,14,08,11.40
2015,04,28,14,09,11.50
2015,04,28,14,10,11.50
2015,04,28,14,11,11.60
2015,04,28,14,12,11.60
2015,04,28,14,13,11.60
2015,04,28,14,14,11.60
2015,04,28,14,15,11.60
2015,04,28,14,16,11.60
2015,04,28,14,17,11.60
2015,04,28,14,18,11.60
2015,04,28,14,19,11.60
2015,04,28,14,20,11.60
2015,04,28,14,21,11.70
2015,04,28,14,22,11.70
2015,04,28,14,23,11.80
2015,04,28,14,24,11.90
2015,04,28,14,25,11.90
2015,04,28,14,26,11.90
2015,04,28,14,27,12.00
2015,04,28,14,28,12.10
2015,04,28,14,29,12.20
2015,04,28,14,30,12.20
2015,04,28,14,31,12.30
2015,04,28,14,32,12.40
2015,04,28,14,33,12.40
2015,04,28,14,34,12.40
2015,04,28,14,35,12.40
2015,04,28,14,36,12.40
2015,04,28,14,37,12.50
2015,04,28,14,38,12.50
2015,04,28,14,39,12.50
2015,04,28,14,40,12.50
2015,04,28,14,41,12.50
2015,04,28,14,42,12.50
2015,04,28,14,43,12.50
2015,04,28,14,44,12.60
2015,04,28,14,45,12.60
2015,04,28,14,46,12.60
2015,04,28,14,47,12.60
2015,04,28,14,48,12.60
2015,04,28,14,49,12.60
2015,04,28,14,50,12.60
2015,04,28,14,51,12.70
2015,04,28,14,52,12.70
2015,04,28,14,53,12.70
2015,04,28,14,54,12.70
2015,04,28,14,55,12.70
2015,04,28,14,56,12.70
2015,04,28,14,57,12.70
2015,04,28,14,58,12.70
2015,04,28,14,59,12.70
2015,04,28,15,00,12.70
2015,04,28,15,01,12.70
2015,04,28,15,02,12.70
2015,04,28,15,03,12.70
2015,04,28,15,04,12.70
2015,04,28,15,05,12.60
2015,04,28,15,06,12.60
2015,04,28,15,07,12.50
2015,04,28,15,08,12.50
2015,04,28,15,09,12.50
2015,04,28,15,10,12.60
2015,04,28,15,11,12.70
2015,04,28,15,12,12.70
2015,04,28,15,13,12.80
2015,04,28,15,14,12.80
2015,04,28,15,15,12.80
2015,04,28,15,16,12.80
2015,04,28,15,17,12.90
2015,04,28,15,18,13.00
2015,04,28,15,19,13.00
2015,04,28,15,20,13.10
2015,04,28,15,21,13.20
2015,04,28,15,22,13.30
2015,04,28,15,23,13.30
2015,04,28,15,24,13.30
2015,04,28,15,25,13.30
2015,04,28,15,26,13.30
2015,04,28,15,27,13.30
2015,04,28,15,28,13.20
2015,04,28,15,29,13.20
2015,04,28,15,30,13.20
2015,04,28,15,31,13.20
2015,04,28,15,32,13.20
2015,04,28,15,33,13.30
2015,04,28,15,34,13.40
2015,04,28,15,35,13.40
2015,04,28,15,36,13.50
2015,04,28,15,37,13.50
2015,04,28,15,38,13.50
2015,04,28,15,39,13.50
2015,04,28,15,40,13.60
2015,04,28,15,41,13.60
2015,04,28,15,42,13.60
2015,04,28,15,43,13.60
2015,04,28,15,44,13.50
2015,04,28,15,45,13.50
2015,04,28,15,46,13.50
2015,04,28,15,47,13.50
2015,04,28,15,48,13.60
2015,04,28,15,49,13.60
2015,04,28,15,50,13.60
2015,04,28,15,51,13.60
2015,04,28,15,52,13.50
2015,04,28,15,53,13.50
2015,04,28,15,54,13.40
2015,04,28,15,55,13.40
2015,04,28,15,56,13.30
2015,04,28,15,57,13.40
2015,04,28,15,58,13.40
2015,04,28,15,59,13.30
2015,04,28,16,00,13.30
2015,04,28,16,01,13.40
2015,04,28,16,02,13.40
2015,04,28,16,03,13.50
2015,04,28,16,04,13.60
2015,04,28,16,05,13.60
2015,04,28,16,06,13.70
2015,04,28,16,07,13.70
2015,04,28,16,08,13.70
2015,04,28,16,09,13.80
2015,04,28,16,10,13.90
2015,04,28,16,11,14.00
2015,04,28,16,12,14.10
2015,04,28,16,13,14.20
2015,04,28,16,14,14.20
2015,04,28,16,15,14.30
2015,04,28,16,16,14.30
2015,04,28,16,17,14.30
2015,04,28,16,18,14.30
2015,04,28,16,19,14.40
2015,04,28,16,20,14.40
2015,04,28,16,21,14.30
2015,04,28,16,22,14.30
2015,04,28,16,23,14.30
2015,04,28,16,24,14.20
2015,04,28,16,25,14.20
2015,04,28,16,26,14.10
2015,04,28,16,27,14.10
2015,04,28,16,28,14.10
2015,04,28,16,29,14.00
2015,04,28,16,30,13.90
2015,04,28,16,31,13.90
2015,04,28,16,32,13.90
2015,04,28,16,33,13.90
2015,04,28,16,34,13.90
2015,04,28,16,35,13.90
2015,04,28,16,36,13.90
2015,04,28,16,37,13.90
2015,04,28,16,38,13.90
2015,04,28,16,39,13.90
2015,04,28,16,40,13.90
2015,04,28,16,41,13.80
2015,04,28,16,42,13.80
2015,04,28,16,43,13.90
2015,04,28,16,44,14.00
2015,04,28,16,45,14.00
2015,04,28,16,46,14.10
2015,04,28,16,47,14.10
2015,04,28,16,48,14.20
2015,04,28,16,49,14.30
2015,04,28,16,50,14.30
2015,04,28,16,51,14.40
2015,04,28,16,52,14.50
2015,04,28,16,53,14.70
2015,04,28,16,54,14.80
2015,04,28,16,55,14.80
2015,04,28,16,56,14.70
2015,04,28,16,57,14.50
2015,04,28,16,58,14.40
2015,04,28,16,59,14.20
2015,04,28,17,00,14.10
2015,04,28,17,01,14.00
2015,04,28,17,02,14.00
2015,04,28,17,03,13.90
2015,04,28,17,04,13.90
2015,04,28,17,05,13.90
2015,04,28,17,06,14.00
2015,04,28,17,07,14.10
2015,04,28,17,08,14.10
2015,04,28,17,09,14.10
2015,04,28,17,10,14.10
2015,04,28,17,11,14.10
2015,04,28,17,12,14.10
2015,04,28,17,13,14.10
2015,04,28,17,14,14.20
2015,04,28,17,15,14.30
2015,04,28,17,16,14.40
2015,04,28,17,17,14.40
2015,04,28,17,18,14.30
2015,04,28,17,19,14.30
2015,04,28,17,20,14.30
2015,04,28,17,21,14.20
2015,04,28,17,22,14.20